Broomfield, CO

1:28 PM MDT on June 23, 2017 (GMT -0600)
Jeffco

Weather History for KBJC - November, 2014

Change the Weather History Date:

Monday, November 24, 2014

  Actual Average Record
Temperature  
Mean Temperature 33 °F -  
Max Temperature 42 °F 47 °F 74 °F (1990)
Min Temperature 24 °F 28 °F -6 °F (1993)
Degree Days  
Heating Degree Days 32    
Moisture  
Dew Point 8 °F    
Average Humidity 37    
Maximum Humidity 51    
Minimum Humidity 25    
Precipitation  
Precipitation 0.00 in - - ()
Sea Level Pressure  
Sea Level Pressure 29.99 in    
Wind  
Wind Speed 21 mph (West)    
Max Wind Speed 37 mph    
Max Gust Speed 47 mph    
Visibility 12 miles    
Events      
Averages and records for this station are not official NWS values.
T = Trace of Precipitation, MM = Missing Value Source: NWS Daily Summary

Daily Weather History Graph

Daily Weather History Graph

Search for Another Location

Airport or City:

Trip Planner

Search our weather history database for the weather conditions in past years. The results will help you decide how hot, cold, wet, or windy it might be!

Date:

Astronomy

Nov. 24, 2014 Rise Set
Actual Time 6:55 AM MST 4:38 PM MST
Civil Twilight 6:26 AM MST 5:08 PM MST
Nautical Twilight 5:52 AM MST 5:41 PM MST
Astronomical Twilight 5:20 AM MST 6:13 PM MST
Moon 8:50 AM MST (11/24) 7:02 PM MST (11/24)
Length of Visible Light 10h 42m
Length of Day
9h 42m
Waxing Crescent, 6% of the Moon is Illuminated
Nov 24
Waxing Crescent
Nov 29
First Quarter
Dec 6
Full
Dec 14
Last Quarter
Dec 21
New

Hourly Weather History & Observations

Time (MST) Temp. Windchill Dew Point Humidity Pressure Visibility Wind Dir Wind Speed Gust Speed Precip Events Conditions
12:15 AM 32.0 °F 20.5 °F 5.0 °F 32% 29.87 in 10.0 mi West 18.4 mph 21.9 mph N/A   Clear
12:35 AM 32.0 °F 18.9 °F 5.0 °F 32% 29.87 in 10.0 mi WNW 24.2 mph 29.9 mph N/A   Clear
12:55 AM 32.0 °F 17.9 °F 5.0 °F 32% 29.86 in 10.0 mi West 28.8 mph 35.7 mph N/A   Clear
1:15 AM 32.0 °F 16.5 °F 5.0 °F 32% 29.85 in 10.0 mi West 35.7 mph 40.3 mph N/A   Clear
1:35 AM 32.0 °F 17.6 °F 5.0 °F 32% 29.85 in 10.0 mi West 29.9 mph 43.7 mph N/A   Clear
1:55 AM 32.0 °F 18.6 °F 5.0 °F 32% 29.86 in 10.0 mi West 25.3 mph 39.1 mph N/A   Clear
2:15 AM 32.0 °F 18.6 °F 5.0 °F 32% 29.86 in 10.0 mi West 25.3 mph - N/A   Clear
2:35 AM 32.0 °F 19.2 °F 5.0 °F 32% 29.86 in 10.0 mi West 23.0 mph 36.8 mph N/A   Clear
2:55 AM 32.0 °F 18.1 °F 5.0 °F 32% 29.85 in 10.0 mi West 27.6 mph 34.5 mph N/A   Clear
3:15 AM 32.0 °F 17.4 °F 5.0 °F 32% 29.84 in 10.0 mi West 31.1 mph 47.2 mph N/A   Clear
3:35 AM 32.0 °F 16.3 °F 5.0 °F 32% 29.83 in 10.0 mi WNW 36.8 mph 44.9 mph N/A   Clear
3:55 AM 32.0 °F 19.5 °F 5.0 °F 32% 29.84 in 10.0 mi WNW 21.9 mph 39.1 mph N/A   Clear
4:15 AM 32.0 °F 20.5 °F 5.0 °F 32% 29.85 in 10.0 mi WNW 18.4 mph 28.8 mph N/A   Clear
4:35 AM 32.0 °F 20.8 °F 6.8 °F 35% 29.86 in 10.0 mi NW 17.3 mph 26.5 mph N/A   Clear
4:54 AM 32.0 °F 22.1 °F 6.8 °F 35% 29.86 in 10.0 mi WNW 13.8 mph 28.8 mph N/A   Clear
5:45 AM 32.0 °F 18.6 °F 6.8 °F 35% 29.85 in 30.0 mi West 25.3 mph 38.0 mph N/A   Mostly Cloudy
6:46 AM 32.0 °F 17.9 °F 6.8 °F 35% 29.87 in 30.0 mi West 28.8 mph 34.5 mph N/A   Mostly Cloudy
8:49 AM 35.6 °F 24.0 °F 8.6 °F 33% 29.91 in 50.0 mi West 23.0 mph 34.5 mph N/A   Mostly Cloudy
9:47 AM 37.4 °F 26.6 °F 8.6 °F 30% 29.94 in 50.0 mi WNW 21.9 mph 31.1 mph N/A   Mostly Cloudy
10:49 AM 39.2 °F 29.3 °F 8.6 °F 28% 29.96 in 50.0 mi WNW 20.7 mph 33.4 mph N/A   Mostly Cloudy
11:48 AM 42.8 °F 34.0 °F 8.6 °F 25% 29.97 in 50.0 mi West 20.7 mph 25.3 mph N/A   Mostly Cloudy
12:47 PM 41.0 °F 32.5 °F 8.6 °F 26% 29.98 in 50.0 mi West 17.3 mph 24.2 mph N/A   Mostly Cloudy
1:55 PM 39.2 °F 30.2 °F 8.6 °F 28% 30.02 in 50.0 mi WNW 17.3 mph 27.6 mph N/A   Mostly Cloudy
2:53 PM 39.2 °F 31.2 °F 12.2 °F 33% 30.05 in 50.0 mi NNW 13.8 mph 25.3 mph N/A   Mostly Cloudy
3:48 PM 37.4 °F 29.3 °F 12.2 °F 36% 30.09 in 50.0 mi North 12.7 mph 23.0 mph N/A   Mostly Cloudy
4:53 PM 33.8 °F 23.5 °F 10.4 °F 38% 30.13 in 50.0 mi North 16.1 mph - N/A   Mostly Cloudy
5:46 PM 32.0 °F 23.0 °F 12.2 °F 44% 30.17 in 30.0 mi NNW 11.5 mph - N/A   Mostly Cloudy
6:53 PM 30.2 °F 21.9 °F 12.2 °F 47% 30.20 in 20.0 mi WNW 9.2 mph - N/A   Mostly Cloudy
7:53 PM 28.4 °F 19.1 °F 8.6 °F 43% 30.21 in 20.0 mi West 10.4 mph - N/A   Mostly Cloudy
8:53 PM 26.6 °F 17.5 °F 8.6 °F 47% 30.21 in 20.0 mi West 9.2 mph - N/A   Mostly Cloudy
9:53 PM 24.8 °F 15.3 °F 8.6 °F 50% 30.20 in 20.0 mi West 9.2 mph - N/A   Scattered Clouds
10:14 PM 26.6 °F 17.5 °F 8.6 °F 47% 30.19 in 10.0 mi West 9.2 mph - N/A   Clear
10:35 PM 26.6 °F 18.2 °F 8.6 °F 47% 30.18 in 10.0 mi West 8.1 mph - N/A   Clear
10:55 PM 24.8 °F 17.9 °F 8.6 °F 50% 30.17 in 10.0 mi SW 5.8 mph - N/A   Clear
11:15 PM 26.6 °F 20.0 °F 8.6 °F 47% 30.17 in 10.0 mi West 5.8 mph - N/A   Clear
11:35 PM 26.6 °F 20.0 °F 10.4 °F 51% 30.16 in 10.0 mi WSW 5.8 mph - N/A   Clear
11:55 PM 26.6 °F 17.5 °F 8.6 °F 47% 30.16 in 10.0 mi West 9.2 mph - N/A   Clear